Location: Unspecified
(0.0000°N, 0.0000°E)
Time: 04:45:53
(UTC+00:00)

Vanguard 2 - Pass Details

Date: 12 October 2022
Orbit: 552 x 2924 km, 32.9° (Epoch: 22 September)

Event Time Altitude Azimuth Distance (km) Brightness Sun altitude
Rises 22:12:18 0° 256° (WSW) 6,596 12.6 -65.3°
Reaches altitude 10° 22:20:32 10° 234° (SW) 5,189 11.9 -67.3°
Maximum altitude 22:26:56 14° 208° (SSW) 4,429 11.5 -68.8°
Enters shadow 22:26:57 14° 208° (SSW) 4,429 11.5 -68.8°
